DIAMANT R/B, 2682

Orbit data source: Space-Track

DIAMANT R/B, 2682 is space debris in LEO originally from a launch on Wed, 15 Feb 1967 UTC launched from the Hamma Guira Space Track Range (HGSTR). Debris objects in space refer to the collection of defunct objects orbiting the Earth. Examples of debris include non-operational satellites, rocket bodies, and fragments generated from explosions, collisions, or faulty payload assembly.

Loading next visibility...
Identifier
2682, 1967-014B
Orbit
LEO
Last TLE update
18 hours ago
Origin
Manufacturer
Sud
Mission
Spacecraft
Bus & Motor
RUBIS, Unknown motor
Mass
65 kg wet, 65 kg dry
Launch date (UTC)
1967-02-15 (58 years ago)
Launch vehicle
Unknown
Launch site
Hamma Guira Space Track Range (HGSTR)
Object type
Payload
Rocket body
Debris
Shape & HBR
Cyl, 2.1 m
Radar Cross Section
1.347 m², Large (>1 m²)

Expand to show TLE details & history

TLE from 18 hours ago
0 DIAMANT R/B
1 02682U 67014B   25169.42301669  .00000814  00000-0  37816-3 0  9991
2 02682  39.4579  66.9754 0745409  59.3418 307.8648 13.31827865815366
Epoch: 2025-06-18T10:09Z
TLE epoch observation values (Epoch: 2025-06-18T10:09:08.642Z)
Latitude
-0.00003°
Longitude
7.78408°
Altitude
823.231 km
Speed
7.598 km/s
True Right ascension
04h 27m 54s
True Declination
0° 00' 00"
Sunlit
Object was in daylight at epoch
Visualization orbit readout
Latitude
5.11618°
Longitude
10.70293°
Altitude
793.949 km
Speed
7.627 km/s
Apparent Right ascension
03h 59m 49s
Apparent Declination
-16° 15' 36"
Sunlit
Object is in daylight
Visualization observer readout
Local Sidereal Time
15:01:31
Azimuth
327.649° NNW
Elevation
-63.16°
Doppler factor
1
Orbital elements
Apogee altitude
1,702.784 km
Perigee altitude
581.637 km
Semi-major axis
7,520.347 km
Eccentricity
0.07454
Inclination
39.4579°
RAAN
66.9754°
Arg. of periapsis
59.3418°
True anomaly
Unknown
Mean anomaly
307.8648°
Eccentric anomaly
Unknown
Mean motion
3.32802 °/min
Orbital period
108.17 mins
BSTAR
0.00037816
Loading maneuver chart data...
Loading SW <> Apogee altitude chart data...
Loading historical data...
Loading historical data...
Loading historical data...
Loading historical data...
Loading historical data...
Loading historical data...
Loading historical data...

DIAMANT R/B Visibility forecast

Observer location: undefined°, undefined°

Span
Click to sort rows by Start time (UTC) header in descending order
Start Az.
Max El. time (UTC)
Max El. Az.
Max El.
End time (UTC)
End Az.
7 mins2025-06-19 20:34:24.622Z217.586° SW2025-06-19 20:37:24.622Z163.548° S29.63°2025-06-19 20:41:24.622Z90.184° ESE
7 mins2025-06-19 22:28:24.622Z259.12° W2025-06-19 22:31:24.622Z120.113° SE44.059°2025-06-19 22:35:24.622Z87.207° E
7 mins2025-06-20 00:22:24.622Z270.053° WNW2025-06-20 00:24:24.622Z233.641° WSW41.866°2025-06-20 00:29:24.622Z110.647° ESE
8 mins2025-06-20 02:15:24.622Z257.414° W2025-06-20 02:18:24.622Z210.337° SW26.275°2025-06-20 02:23:24.622Z150.208° SSE
|